Retour au catalogue

STARLINK-4056

ActifCommunicationsVLEO
NORAD 53242·PAYLOAD·🇺🇸 United States

Lancé Jul 24, 2022 depuis Cape Canaveral Space Force Station

Loading…

Prochains Passages (prochaines 24 heures)

TLE

FraisSource: CelesTrak SupGP

Époque: Sep 15, 2026, 02:53 UTC

1 53242C 22086A   26258.12062500 -.00035046  00000+0 -10356-2 0  2587
2 53242  53.1596  60.8720 0001031  81.1816 226.7280 15.34403270    17

Suivez STARLINK-4056 en temps réel avec AllMySat

Download on the App Store